Regional Weather Roundup
Issued by NWS Northern Indiana

Home | Current Version | Previous Version | Text Only | Print | Product List | Glossary On
Versions: 1 2 3 4 5 6 7 8 9 10 11 12 13 14 15 16 17 18 19 20 21 22 23 24 25 26 27 28 29 30 31 32 33 34 35 36 37 38 39 40 41 42 43 44 45 46 47 48 49 50
790
ASUS43 KIWX 251000
RWRIWX

KIWX WEATHER ROUNDUP
NATIONAL WEATHER SERVICE NORTHERN INDIANA
500 AM EST SAT NOV 25 2017

NOTE: "FAIR" INDICATES FEW OR NO CLOUDS BELOW 12,000 FEET WITH NO
SIGNIFICANT WEATHER AND/OR OBSTRUCTIONS TO VISIBILITY.

* THESE STATIONS ARE NOT UNDER NWS QUALITY CONTROL. THEY ALSO MAY NOT
  REPORT WEATHER SUCH AS PRECIPITATION OR FOG.

INZ001>027-251100-
NORTHERN INDIANA

CITY           SKY/WX    TMP DP  RH WIND       PRES   REMARKS
MICHIGAN CITY* CLOUDY    46  41  81 NW12G17   29.75R
KNOX*          CLOUDY    45  39  81 W7        29.72R
SOUTH BEND     CLOUDY    48  43  82 NW18      29.72R
GOSHEN         CLOUDY    47  39  74 W9        29.68R
MONTICELLO*    CLEAR     44  39  83 W10       29.73R
WARSAW*        MOCLDY    45  37  76 W9        29.69R
AUBURN*        CLEAR     45  36  70 W6        29.66R
FORT WAYNE     PTCLDY    46  38  73 W13       29.68R
PERU/GRISSOM   MOCLDY    44  40  86 W7        29.71R

$$
INZ028>050-251100-
CENTRAL INDIANA

CITY           SKY/WX    TMP DP  RH WIND       PRES   REMARKS
LAFAYETTE      PTCLDY    44  40  85 W9        29.75R
KOKOMO*        CLOUDY    46  39  76 W12       29.73R
MUNCIE*        CLOUDY    49  36  61 W10       29.71R
INDIANAPOLIS   PTCLDY    42  34  73 SW9       29.76R

$$
MIZ043>046-050>051-056>058-064>065-071>073-077>080-251100-
SOUTHWEST LOWER MICHIGAN

CITY           SKY/WX    TMP DP  RH WIND       PRES   REMARKS
BATTLE CREEK   CLOUDY    48  44  86 NW14G25   29.64R
BENTON HARBOR  MOCLDY    48  40  73 NW10G20   29.70R
COLDWATER*     CLOUDY    49  43  79 W10       29.64R
HILLSDALE*     CLOUDY    46  37  71 W12G17    29.61R
HOLLAND        CLOUDY    47  38  71 NW13G23   29.67R
GRAND RAPIDS   CLOUDY    48  42  80 NW18G24   29.63R
KALAMAZOO      CLOUDY    48  39  71 NW22G33   29.66R
STURGIS*       CLOUDY    49  43  79 NW10G17   29.65R
THREE RIVERS*  CLOUDY    50  42  74 NW14G20   29.67R

$$
OHZ001>008-015>018-024>025-251100-
NORTHWEST OHIO

CITY           SKY/WX    TMP DP  RH WIND       PRES   REMARKS
DEFIANCE       CLEAR     46  35  65 SW6       29.65R
FINDLAY        CLOUDY    49  33  54 SW14      29.64R
TOLEDO EXPRESS CLOUDY    48  37  65 W13       29.61R
TOLEDO METCALF CLOUDY    47  35  63 SW12      29.62R
LIMA           PTCLDY    47  34  60 SW14      29.67R

$$
AND FOR LAKE MICHIGAN COASTAL AND OPEN LAKE BUOY OBSERVATIONS

STATION/POSITION TEMP    WIND        PRES    VSBY  WAVE
                 AIR SEA DIR/SP/G                  HT/PER
                 (F)     (DEG/KT/KT) (MB)    (MI)  (FT/S)
CALUMET HARBOR    48     270/  5/ 10 1006.6R
MICHIGAN CITY     48     300/ 19/ 22   N/A
BURNS HARBOR      48     320/ 16/ 24 1007.8R
SAINT JOSEPH      49     340/ 15/ 21 1005.8
SOUTH LAKE BUOY   47 47  330/ 17/ 21 1005.1          3/ 4

$$
&&




USA.gov is the U.S. government's official web portal to all federal, state and local government web resources and services.